Flag for Germany Weather past 2 weeks in Schleswig, Schleswig-Holstein, Germany

Now
55 °F

Light rain. Low clouds.


Feels Like: 54 °F
Forecast: 49 / 62 °F
Wind: 7 mph from West

Location: Schleswig

Current Time: Jul 30, 2015 at 12:51:22 PM

Latest Report: Jul 30, 2015 at 10:00 AM


Visibility: 6 mi

Pressure: 29.67 "Hg

Humidity: 98%

Dew point: 55 °F

Location of SchleswigLocation

Historic Weather in Schleswig — Graph

°F

Schleswig temperature yesterday

Maximum temperature yesterday: 61 °F (at 3:00 PM)
Minimum temperature yesterday: 54 °F (at 9:00 PM)
Average temperature yesterday: 56 °F

Past Weeks' High & Low Weather Summary

 TemperatureHumidityPressure
High76 °F (Jul 22, 3:00 PM)100% (Jul 21, 8:00 AM)30.13 "Hg (Jul 21, 8:00 AM)
Low49 °F (Jul 17, 4:00 AM)44% (Jul 15, 2:00 PM)29.38 "Hg (Jul 28, 3:00 AM)
Average61 °F81%29.80 "Hg
* Reported Jul 15 10:00 AM — Jul 30 10:00 AM, Schleswig, Weather by CustomWeather, © 2015

Note: Actual official high and low records may vary slightly from our data, if they occured in-between our weather recording intervals... More about our weather records

Advertising

Schleswig weather history for previous 24 hours

 ConditionsComfort  
Time TempWeatherWind HumidityBarometerVisibility
10:00 AM
Thu, Jul 30
55 °FLight rain. Low clouds.7 mph98%29.67 "Hg6 mi
9:00 AM55 °FLow clouds.9 mph98%29.64 "Hg5 mi
8:00 AM55 °FLight rain. Low clouds.9 mph98%29.62 "Hg2 mi
7:00 AM55 °FLight rain. Overcast.7 mph98%29.60 "Hg2 mi
4:00 AM56 °FLight mixture of precip. Low clouds.8 mph99%29.56 "Hg3 mi
3:00 AM55 °FLight rain. Low clouds.8 mph99%29.55 "Hg7 mi
2:00 AM55 °FLight rain. Low clouds.8 mph99%29.54 "Hg5 mi
1:00 AM55 °FRain. Low clouds.6 mph99%29.53 "Hg3 mi
10:00 PM
Wed, Jul 29
55 °FOvercast.7 mph97%29.47 "Hg19 mi
9:00 PM54 °FSprinkles. Low clouds.6 mph97%29.44 "Hg11 mi
8:00 PM54 °FSprinkles. Low clouds.7 mph97%29.47 "Hg6 mi
7:00 PM55 °FSprinkles. Overcast.8 mph94%29.50 "Hg16 mi
6:00 PM59 °FOvercast.7 mph79%29.50 "Hg16 mi
5:00 PM61 °FOvercast.9 mph70%29.53 "Hg19 mi
4:00 PM56 °FOvercast.7 mph83%29.54 "Hg19 mi
3:00 PM61 °FOvercast.8 mph80%29.54 "Hg19 mi
2:00 PM55 °FLight rain. Overcast.5 mph92%29.55 "Hg12 mi
1:00 PM56 °FSprinkles. Overcast.7 mph84%29.55 "Hg12 mi
12:00 PM57 °FSprinkles. Overcast.9 mph84%29.55 "Hg14 mi
Weather by CustomWeather, © 2015

See weather overviewHow to use our weather pages